Time,TemperatureF,DewpointF,PressureIn,WindDirection,WindDirectionDegrees,WindSpeedMPH,WindSpeedGustMPH,Humidity,HourlyPrecipIn,Conditions,Clouds,dailyrainin,SoftwareType,DateUTC
2013-02-10 00:01:00,24.4,14.7,30.41,SE,140,1.0,2.0,66,0.00,,,0.00,meteohub,2013-02-10 05:01:00,
2013-02-10 00:04:00,24.4,15.1,30.41,SE,140,1.0,2.0,67,0.00,,,0.00,meteohub,2013-02-10 05:04:00,
2013-02-10 00:07:00,24.3,15.3,30.41,SE,139,0.0,2.0,68,0.00,,,0.00,meteohub,2013-02-10 05:07:00,
2013-02-10 00:14:00,24.1,14.7,30.41,SE,139,0.0,2.0,67,0.00,,,0.00,meteohub,2013-02-10 05:14:00,
2013-02-10 00:20:00,24.4,14.7,30.41,SE,138,0.0,1.0,66,0.00,,,0.00,meteohub,2013-02-10 05:20:00,
2013-02-10 00:26:00,24.4,15.1,30.42,SE,136,0.0,1.0,67,0.00,,,0.00,meteohub,2013-02-10 05:26:00,
2013-02-10 00:27:00,24.4,15.1,30.42,SE,136,0.0,1.0,67,0.00,,,0.00,meteohub,2013-02-10 05:27:00,
2013-02-10 00:32:00,24.3,14.9,30.42,South,173,1.0,1.0,67,0.00,,,0.00,meteohub,2013-02-10 05:32:00,
2013-02-10 00:37:00,24.3,14.9,30.42,ESE,112,1.0,2.0,67,0.00,,,0.00,meteohub,2013-02-10 05:37:00,
2013-02-10 00:42:00,24.4,15.1,30.42,ESE,122,0.0,2.0,67,0.00,,,0.00,meteohub,2013-02-10 05:42:00,
2013-02-10 00:47:00,24.4,15.1,30.42,SE,126,0.0,2.0,67,0.00,,,0.00,meteohub,2013-02-10 05:47:00,
2013-02-10 00:53:00,24.6,15.3,30.42,SE,126,0.0,2.0,67,0.00,,,0.00,meteohub,2013-02-10 05:53:00,
2013-02-10 00:59:00,24.6,14.9,30.42,SE,126,0.0,1.0,66,0.00,,,0.00,meteohub,2013-02-10 05:59:00,
2013-02-10 01:06:00,24.6,14.9,30.42,SE,126,0.0,1.0,66,0.00,,,0.00,meteohub,2013-02-10 06:06:00,
2013-02-10 01:12:00,24.4,15.1,30.42,ESE,115,0.0,1.0,67,0.00,,,0.00,meteohub,2013-02-10 06:12:00,
2013-02-10 01:17:00,24.1,15.1,30.42,SE,133,1.0,2.0,68,0.00,,,0.00,meteohub,2013-02-10 06:17:00,
2013-02-10 01:22:00,23.7,14.7,30.42,SE,133,0.0,2.0,68,0.00,,,0.00,meteohub,2013-02-10 06:22:00,
2013-02-10 01:27:00,23.7,14.7,30.42,SE,133,0.0,2.0,68,0.00,,,0.00,meteohub,2013-02-10 06:27:00,
2013-02-10 01:32:00,23.7,14.7,30.42,SE,133,0.0,1.0,68,0.00,,,0.00,meteohub,2013-02-10 06:32:00,
2013-02-10 01:37:00,23.7,14.7,30.42,SE,133,0.0,1.0,68,0.00,,,0.00,meteohub,2013-02-10 06:37:00,
2013-02-10 01:42:00,23.7,14.7,30.42,SE,133,0.0,1.0,68,0.00,,,0.00,meteohub,2013-02-10 06:42:00,
2013-02-10 01:47:00,23.7,14.7,30.42,SE,133,0.0,1.0,68,0.00,,,0.00,meteohub,2013-02-10 06:47:00,
2013-02-10 01:52:00,23.4,14.7,30.42,SE,133,0.0,1.0,69,0.00,,,0.00,meteohub,2013-02-10 06:52:00,
2013-02-10 01:57:00,23.2,14.5,30.42,SE,133,0.0,1.0,69,0.00,,,0.00,meteohub,2013-02-10 06:57:00,
2013-02-10 02:02:00,22.8,14.5,30.42,SE,133,0.0,1.0,70,0.00,,,0.00,meteohub,2013-02-10 07:02:00,
2013-02-10 02:07:00,22.6,14.7,30.42,SE,133,0.0,1.0,71,0.00,,,0.00,meteohub,2013-02-10 07:07:00,
2013-02-10 02:12:00,22.6,14.7,30.41,SE,133,0.0,1.0,71,0.00,,,0.00,meteohub,2013-02-10 07:12:00,
2013-02-10 02:17:00,22.5,14.5,30.41,SE,133,0.0,0.0,71,0.00,,,0.00,meteohub,2013-02-10 07:17:00,
2013-02-10 02:22:00,22.5,14.5,30.41,SE,133,0.0,0.0,71,0.00,,,0.00,meteohub,2013-02-10 07:22:00,
2013-02-10 02:27:00,22.3,14.7,30.41,SE,133,0.0,0.0,72,0.00,,,0.00,meteohub,2013-02-10 07:27:00,
2013-02-10 02:32:00,22.1,14.5,30.42,SE,133,0.0,0.0,72,0.00,,,0.00,meteohub,2013-02-10 07:32:00,
2013-02-10 02:37:00,21.9,14.5,30.42,SE,133,1.0,1.0,73,0.00,,,0.00,meteohub,2013-02-10 07:37:00,
2013-02-10 02:42:00,21.6,14.5,30.42,SE,133,0.0,1.0,74,0.00,,,0.00,meteohub,2013-02-10 07:42:00,
2013-02-10 02:47:00,21.6,14.5,30.42,SE,132,0.0,1.0,74,0.00,,,0.00,meteohub,2013-02-10 07:47:00,
2013-02-10 02:52:00,21.6,14.5,30.42,SE,132,2.0,2.0,74,0.00,,,0.00,meteohub,2013-02-10 07:52:00,
2013-02-10 02:57:00,21.6,14.9,30.42,SE,132,0.0,2.0,75,0.00,,,0.00,meteohub,2013-02-10 07:57:00,
2013-02-10 03:02:00,21.7,15.1,30.42,SE,132,0.0,2.0,75,0.00,,,0.00,meteohub,2013-02-10 08:02:00,
2013-02-10 03:07:00,21.7,15.1,30.42,ESE,117,1.0,2.0,75,0.00,,,0.00,meteohub,2013-02-10 08:07:00,
2013-02-10 03:12:00,21.6,14.5,30.42,SSE,154,0.0,3.0,74,0.00,,,0.00,meteohub,2013-02-10 08:12:00,
2013-02-10 03:17:00,21.6,14.5,30.42,SSE,154,0.0,3.0,74,0.00,,,0.00,meteohub,2013-02-10 08:17:00,
2013-02-10 03:22:00,21.4,14.7,30.41,ESE,119,0.0,3.0,75,0.00,,,0.00,meteohub,2013-02-10 08:22:00,
2013-02-10 03:27:00,21.4,14.7,30.41,SSE,148,0.0,2.0,75,0.00,,,0.00,meteohub,2013-02-10 08:27:00,
2013-02-10 03:32:00,21.2,14.5,30.41,SSE,148,1.0,2.0,75,0.00,,,0.00,meteohub,2013-02-10 08:32:00,
2013-02-10 03:37:00,21.0,14.4,30.41,SE,146,0.0,2.0,75,0.00,,,0.00,meteohub,2013-02-10 08:37:00,
2013-02-10 03:42:00,20.8,14.5,30.41,SE,146,1.0,2.0,76,0.00,,,0.00,meteohub,2013-02-10 08:42:00,
2013-02-10 03:47:00,21.0,14.7,30.41,SE,146,1.0,2.0,76,0.00,,,0.00,meteohub,2013-02-10 08:47:00,
2013-02-10 03:52:00,21.0,14.7,30.41,SE,146,0.0,2.0,76,0.00,,,0.00,meteohub,2013-02-10 08:52:00,
2013-02-10 03:57:00,21.2,14.9,30.41,SE,146,0.0,1.0,76,0.00,,,0.00,meteohub,2013-02-10 08:57:00,
2013-02-10 04:02:00,21.2,14.5,30.41,SE,146,0.0,1.0,75,0.00,,,0.00,meteohub,2013-02-10 09:02:00,
2013-02-10 04:07:00,20.7,14.0,30.41,SE,146,0.0,1.0,75,0.00,,,0.00,meteohub,2013-02-10 09:07:00,
2013-02-10 04:12:00,19.9,13.8,30.41,SE,146,0.0,1.0,77,0.00,,,0.00,meteohub,2013-02-10 09:12:00,
2013-02-10 04:17:00,19.8,14.0,30.42,SE,146,0.0,1.0,78,0.00,,,0.00,meteohub,2013-02-10 09:17:00,
2013-02-10 04:22:00,19.6,13.8,30.41,SE,146,0.0,1.0,78,0.00,,,0.00,meteohub,2013-02-10 09:22:00,
2013-02-10 04:27:00,19.6,14.2,30.41,SE,146,0.0,1.0,79,0.00,,,0.00,meteohub,2013-02-10 09:27:00,
2013-02-10 04:32:00,19.6,14.2,30.41,SE,146,0.0,0.0,79,0.00,,,0.00,meteohub,2013-02-10 09:32:00,
2013-02-10 04:37:00,19.6,14.2,30.41,SE,146,0.0,0.0,79,0.00,,,0.00,meteohub,2013-02-10 09:37:00,
2013-02-10 04:42:00,19.6,13.8,30.41,SE,146,0.0,0.0,78,0.00,,,0.00,meteohub,2013-02-10 09:42:00,
2013-02-10 04:47:00,19.8,14.0,30.41,SE,146,0.0,0.0,78,0.00,,,0.00,meteohub,2013-02-10 09:47:00,
2013-02-10 04:52:00,19.8,14.0,30.41,SE,146,0.0,0.0,78,0.00,,,0.00,meteohub,2013-02-10 09:52:00,
2013-02-10 04:57:00,19.8,14.0,30.41,SE,146,0.0,0.0,78,0.00,,,0.00,meteohub,2013-02-10 09:57:00,
2013-02-10 05:02:00,19.6,13.8,30.41,SE,146,0.0,0.0,78,0.00,,,0.00,meteohub,2013-02-10 10:02:00,
2013-02-10 05:07:00,19.6,13.8,30.41,SE,146,0.0,0.0,78,0.00,,,0.00,meteohub,2013-02-10 10:07:00,
2013-02-10 05:12:00,19.4,13.6,30.41,SE,146,0.0,0.0,78,0.00,,,0.00,meteohub,2013-02-10 10:12:00,
2013-02-10 05:17:00,19.2,13.5,30.41,SE,146,0.0,0.0,78,0.00,,,0.00,meteohub,2013-02-10 10:17:00,
2013-02-10 05:22:00,19.0,13.8,30.42,SE,146,0.0,0.0,80,0.00,,,0.00,meteohub,2013-02-10 10:22:00,
2013-02-10 05:27:00,18.9,13.6,30.42,SE,146,0.0,0.0,80,0.00,,,0.00,meteohub,2013-02-10 10:27:00,
2013-02-10 05:32:00,18.7,13.8,30.42,SE,146,0.0,0.0,81,0.00,,,0.00,meteohub,2013-02-10 10:32:00,
2013-02-10 05:37:00,18.5,13.6,30.41,SE,146,0.0,1.0,81,0.00,,,0.00,meteohub,2013-02-10 10:37:00,
2013-02-10 05:42:00,18.3,13.5,30.41,SE,146,0.0,1.0,81,0.00,,,0.00,meteohub,2013-02-10 10:42:00,
2013-02-10 05:47:00,18.3,13.5,30.42,SE,146,0.0,1.0,81,0.00,,,0.00,meteohub,2013-02-10 10:47:00,
2013-02-10 05:52:00,18.3,13.5,30.42,SE,146,0.0,0.0,81,0.00,,,0.00,meteohub,2013-02-10 10:52:00,
2013-02-10 05:57:00,18.3,13.5,30.42,SE,146,0.0,1.0,81,0.00,,,0.00,meteohub,2013-02-10 10:57:00,
2013-02-10 06:02:00,18.1,13.3,30.43,SE,146,0.0,1.0,81,0.00,,,0.00,meteohub,2013-02-10 11:02:00,
2013-02-10 06:07:00,18.1,13.6,30.43,SE,144,1.0,1.0,82,0.00,,,0.00,meteohub,2013-02-10 11:07:00,
2013-02-10 06:12:00,18.1,13.8,30.43,SE,143,1.0,2.0,83,0.00,,,0.00,meteohub,2013-02-10 11:12:00,
2013-02-10 06:17:00,18.1,13.8,30.43,SE,146,2.0,2.0,83,0.00,,,0.00,meteohub,2013-02-10 11:17:00,
2013-02-10 06:22:00,18.3,14.0,30.43,SE,144,0.0,2.0,83,0.00,,,0.00,meteohub,2013-02-10 11:22:00,
2013-02-10 06:27:00,18.5,14.2,30.43,SE,144,0.0,2.0,83,0.00,,,0.00,meteohub,2013-02-10 11:27:00,
2013-02-10 06:32:00,18.7,14.2,30.44,SE,144,0.0,2.0,82,0.00,,,0.00,meteohub,2013-02-10 11:32:00,
2013-02-10 06:37:00,18.7,14.2,30.44,SE,144,0.0,1.0,82,0.00,,,0.00,meteohub,2013-02-10 11:37:00,
2013-02-10 06:42:00,18.7,14.2,30.44,SE,144,0.0,1.0,82,0.00,,,0.00,meteohub,2013-02-10 11:42:00,
2013-02-10 06:47:00,18.5,13.6,30.44,SE,144,0.0,1.0,81,0.00,,,0.00,meteohub,2013-02-10 11:47:00,
2013-02-10 06:52:00,18.5,14.0,30.44,SE,144,0.0,1.0,82,0.00,,,0.00,meteohub,2013-02-10 11:52:00,
2013-02-10 06:57:00,18.5,14.0,30.44,SE,144,0.0,1.0,82,0.00,,,0.00,meteohub,2013-02-10 11:57:00,
2013-02-10 07:02:00,18.3,13.8,30.44,SE,144,0.0,0.0,82,0.00,,,0.00,meteohub,2013-02-10 12:02:00,
2013-02-10 07:07:00,18.1,13.6,30.45,SE,144,0.0,0.0,82,0.00,,,0.00,meteohub,2013-02-10 12:07:00,
2013-02-10 07:12:00,18.1,13.8,30.44,SE,144,0.0,0.0,83,0.00,,,0.00,meteohub,2013-02-10 12:12:00,
2013-02-10 07:17:00,18.0,13.6,30.44,SE,142,0.0,0.0,83,0.00,,,0.00,meteohub,2013-02-10 12:17:00,
2013-02-10 07:22:00,17.8,13.5,30.44,SE,144,0.0,0.0,83,0.00,,,0.00,meteohub,2013-02-10 12:22:00,
2013-02-10 07:27:00,18.0,14.0,30.44,SE,144,0.0,0.0,84,0.00,,,0.00,meteohub,2013-02-10 12:27:00,
2013-02-10 07:32:00,18.0,14.0,30.45,SE,144,0.0,0.0,84,0.00,,,0.00,meteohub,2013-02-10 12:32:00,
2013-02-10 07:37:00,17.8,13.8,30.45,SE,144,0.0,0.0,84,0.00,,,0.00,meteohub,2013-02-10 12:37:00,
2013-02-10 07:42:00,17.6,13.8,30.45,SE,144,0.0,0.0,85,0.00,,,0.00,meteohub,2013-02-10 12:42:00,
2013-02-10 07:47:00,17.4,13.6,30.45,SE,142,0.0,0.0,85,0.00,,,0.00,meteohub,2013-02-10 12:47:00,
2013-02-10 07:52:00,17.4,13.6,30.46,SE,142,0.0,0.0,85,0.00,,,0.00,meteohub,2013-02-10 12:52:00,
2013-02-10 07:57:00,17.6,14.2,30.46,SE,142,0.0,0.0,86,0.00,,,0.00,meteohub,2013-02-10 12:57:00,
2013-02-10 08:02:00,18.0,14.5,30.45,SE,142,0.0,0.0,86,0.00,,,0.00,meteohub,2013-02-10 13:02:00,
2013-02-10 08:07:00,18.0,14.5,30.45,SE,142,0.0,0.0,86,0.00,,,0.00,meteohub,2013-02-10 13:07:00,
2013-02-10 08:12:00,18.1,14.4,30.45,SE,142,0.0,0.0,85,0.00,,,0.00,meteohub,2013-02-10 13:12:00,
2013-02-10 08:17:00,18.3,14.9,30.46,SE,142,0.0,0.0,86,0.00,,,0.00,meteohub,2013-02-10 13:17:00,
2013-02-10 08:22:00,18.9,15.4,30.46,SE,142,0.0,0.0,86,0.00,,,0.00,meteohub,2013-02-10 13:22:00,
2013-02-10 08:27:00,19.0,15.6,30.45,SE,140,0.0,0.0,86,0.00,,,0.00,meteohub,2013-02-10 13:27:00,
2013-02-10 08:32:00,19.6,15.8,30.45,SE,139,0.0,0.0,85,0.00,,,0.00,meteohub,2013-02-10 13:32:00,
2013-02-10 08:37:00,19.8,15.8,30.45,SE,139,0.0,0.0,84,0.00,,,0.00,meteohub,2013-02-10 13:37:00,
2013-02-10 08:42:00,20.1,16.0,30.45,SE,139,0.0,0.0,84,0.00,,,0.00,meteohub,2013-02-10 13:42:00,
2013-02-10 08:47:00,20.1,15.8,30.45,SE,134,0.0,0.0,83,0.00,,,0.00,meteohub,2013-02-10 13:47:00,
2013-02-10 08:53:00,20.5,16.3,30.45,SE,134,0.0,0.0,84,0.00,,,0.00,meteohub,2013-02-10 13:53:00,
2013-02-10 08:59:00,21.0,17.2,30.44,SE,133,0.0,0.0,85,0.00,,,0.00,meteohub,2013-02-10 13:59:00,
2013-02-10 09:05:00,21.7,17.6,30.44,NW,314,0.0,0.0,84,0.00,,,0.00,meteohub,2013-02-10 14:05:00,
2013-02-10 09:11:00,21.9,17.2,30.45,NW,321,0.0,0.0,82,0.00,,,0.00,meteohub,2013-02-10 14:11:00,
2013-02-10 09:17:00,22.1,17.2,30.45,NW,322,0.0,0.0,81,0.00,,,0.00,meteohub,2013-02-10 14:17:00,
2013-02-10 09:22:00,22.3,17.4,30.45,West,281,0.0,2.0,81,0.00,,,0.00,meteohub,2013-02-10 14:22:00,
2013-02-10 09:27:00,23.0,18.3,30.45,WNW,292,0.0,2.0,82,0.00,,,0.00,meteohub,2013-02-10 14:27:00,
2013-02-10 09:33:00,24.1,19.0,30.45,NNW,336,1.0,2.0,81,0.00,,,0.00,meteohub,2013-02-10 14:33:00,
2013-02-10 09:39:00,24.3,18.7,30.45,NNW,338,0.0,2.0,79,0.00,,,0.00,meteohub,2013-02-10 14:39:00,
2013-02-10 09:45:00,24.4,18.9,30.45,NNW,331,0.0,2.0,79,0.00,,,0.00,meteohub,2013-02-10 14:45:00,
2013-02-10 09:51:00,25.0,19.4,30.45,NNW,330,0.0,2.0,79,0.00,,,0.00,meteohub,2013-02-10 14:51:00,
2013-02-10 09:57:00,25.3,19.2,30.45,NNW,336,0.0,2.0,77,0.00,,,0.00,meteohub,2013-02-10 14:57:00,
2013-02-10 10:04:00,26.2,19.4,30.45,NW,311,0.0,2.0,75,0.00,,,0.00,meteohub,2013-02-10 15:04:00,
2013-02-10 10:10:00,26.4,19.2,30.45,NNW,327,0.0,2.0,74,0.00,,,0.00,meteohub,2013-02-10 15:10:00,
2013-02-10 10:16:00,26.8,19.6,30.44,NNW,341,2.0,3.0,74,0.00,,,0.00,meteohub,2013-02-10 15:16:00,
2013-02-10 10:22:00,27.0,20.1,30.43,NNW,327,2.0,3.0,75,0.00,,,0.00,meteohub,2013-02-10 15:22:00,
2013-02-10 10:27:00,27.5,19.9,30.43,NNW,346,1.0,3.0,73,0.00,,,0.00,meteohub,2013-02-10 15:27:00,
2013-02-10 10:32:00,27.9,19.9,30.43,NW,314,1.0,3.0,72,0.00,,,0.00,meteohub,2013-02-10 15:32:00,
2013-02-10 10:37:00,27.9,19.0,30.42,NW,325,1.0,4.0,69,0.00,,,0.00,meteohub,2013-02-10 15:37:00,
2013-02-10 10:42:00,28.0,19.6,30.42,NNW,332,0.0,4.0,70,0.00,,,0.00,meteohub,2013-02-10 15:42:00,
2013-02-10 10:47:00,28.4,19.9,30.42,NW,312,0.0,4.0,70,0.00,,,0.00,meteohub,2013-02-10 15:47:00,
2013-02-10 10:52:00,28.4,19.2,30.42,NNW,331,0.0,4.0,68,0.00,,,0.00,meteohub,2013-02-10 15:52:00,
2013-02-10 10:57:00,28.6,20.1,30.42,NNW,338,0.0,3.0,70,0.00,,,0.00,meteohub,2013-02-10 15:57:00,
2013-02-10 11:02:00,29.1,20.3,30.41,NW,321,2.0,3.0,69,0.00,,,0.00,meteohub,2013-02-10 16:02:00,
2013-02-10 11:07:00,29.7,20.5,30.41,NNW,329,3.0,4.0,68,0.00,,,0.00,meteohub,2013-02-10 16:07:00,
2013-02-10 11:13:00,29.8,20.3,30.41,NNW,341,0.0,4.0,67,0.00,,,0.00,meteohub,2013-02-10 16:13:00,
2013-02-10 11:19:00,30.7,19.9,30.41,NNW,336,0.0,4.0,64,0.00,,,0.00,meteohub,2013-02-10 16:19:00,
2013-02-10 11:25:00,31.6,20.8,30.41,NW,315,1.0,4.0,64,0.00,,,0.00,meteohub,2013-02-10 16:25:00,
2013-02-10 11:31:00,32.9,20.5,30.41,NW,309,0.0,4.0,60,0.00,,,0.00,meteohub,2013-02-10 16:31:00,
2013-02-10 11:37:00,33.4,20.7,30.40,North,11,1.0,4.0,59,0.00,,,0.00,meteohub,2013-02-10 16:37:00,
2013-02-10 11:42:00,34.2,20.5,30.40,NNW,328,3.0,5.0,57,0.00,,,0.00,meteohub,2013-02-10 16:42:00,
2013-02-10 11:47:00,34.5,20.8,30.39,NNE,23,0.0,5.0,57,0.00,,,0.00,meteohub,2013-02-10 16:47:00,
2013-02-10 11:52:00,35.1,21.0,30.39,NW,322,1.0,5.0,56,0.00,,,0.00,meteohub,2013-02-10 16:52:00,
2013-02-10 11:57:00,35.2,21.6,30.39,NNW,335,4.0,5.0,57,0.00,,,0.00,meteohub,2013-02-10 16:57:00,
2013-02-10 12:02:00,35.8,22.1,30.39,NW,320,4.0,5.0,57,0.00,,,0.00,meteohub,2013-02-10 17:02:00,
2013-02-10 12:07:00,36.1,22.5,30.39,WNW,300,1.0,5.0,57,0.00,,,0.00,meteohub,2013-02-10 17:07:00,
2013-02-10 12:12:00,37.0,22.8,30.39,NW,304,0.0,5.0,56,0.00,,,0.00,meteohub,2013-02-10 17:12:00,
2013-02-10 12:17:00,37.2,22.1,30.39,NW,311,2.0,5.0,54,0.00,,,0.00,meteohub,2013-02-10 17:17:00,
2013-02-10 12:22:00,38.5,22.8,30.38,NW,322,0.0,4.0,53,0.00,,,0.00,meteohub,2013-02-10 17:22:00,
2013-02-10 12:27:00,38.8,21.7,30.38,NNW,330,1.0,4.0,50,0.00,,,0.00,meteohub,2013-02-10 17:27:00,
2013-02-10 12:32:00,39.6,21.6,30.37,SE,145,0.0,4.0,48,0.00,,,0.00,meteohub,2013-02-10 17:32:00,
2013-02-10 12:37:00,40.1,21.9,30.37,NW,319,2.0,4.0,48,0.00,,,0.00,meteohub,2013-02-10 17:37:00,
2013-02-10 12:42:00,40.6,22.5,30.37,WNW,288,1.0,3.0,48,0.00,,,0.00,meteohub,2013-02-10 17:42:00,
2013-02-10 12:47:00,41.2,21.9,30.36,NW,318,1.0,3.0,46,0.00,,,0.00,meteohub,2013-02-10 17:47:00,
2013-02-10 12:52:00,42.1,20.1,30.36,SSE,153,1.0,3.0,41,0.00,,,0.00,meteohub,2013-02-10 17:52:00,
2013-02-10 12:57:00,42.8,22.5,30.35,West,274,2.0,3.0,44,0.00,,,0.00,meteohub,2013-02-10 17:57:00,
2013-02-10 13:02:00,43.3,19.4,30.36,NW,317,2.0,3.0,38,0.00,,,0.00,meteohub,2013-02-10 18:02:00,
2013-02-10 13:07:00,44.1,24.1,30.35,NNW,342,2.0,3.0,45,0.00,,,0.00,meteohub,2013-02-10 18:07:00,
2013-02-10 13:12:00,45.3,20.7,30.35,SSE,156,1.0,4.0,37,0.00,,,0.00,meteohub,2013-02-10 18:12:00,
2013-02-10 13:17:00,46.2,22.6,30.34,WNW,299,2.0,4.0,39,0.00,,,0.00,meteohub,2013-02-10 18:17:00,
2013-02-10 13:22:00,46.2,21.9,30.34,East,100,1.0,4.0,38,0.00,,,0.00,meteohub,2013-02-10 18:22:00,
2013-02-10 13:27:00,46.8,21.9,30.33,East,101,1.0,5.0,37,0.00,,,0.00,meteohub,2013-02-10 18:27:00,
2013-02-10 13:32:00,47.1,22.1,30.32,SSE,162,1.0,5.0,37,0.00,,,0.00,meteohub,2013-02-10 18:32:00,
2013-02-10 13:39:00,46.6,19.8,30.32,WSW,249,1.0,5.0,34,0.00,,,0.00,meteohub,2013-02-10 18:39:00,
2013-02-10 13:45:00,45.9,19.8,30.32,North,355,2.0,5.0,35,0.00,,,0.00,meteohub,2013-02-10 18:45:00,
2013-02-10 13:51:00,45.9,19.8,30.31,South,173,2.0,5.0,35,0.00,,,0.00,meteohub,2013-02-10 18:51:00,
2013-02-10 13:57:00,45.5,20.1,30.30,West,274,4.0,5.0,36,0.00,,,0.00,meteohub,2013-02-10 18:57:00,
2013-02-10 14:02:00,45.7,20.3,30.30,NW,317,2.0,5.0,36,0.00,,,0.00,meteohub,2013-02-10 19:02:00,
2013-02-10 14:07:00,46.4,20.8,30.31,South,182,1.0,5.0,36,0.00,,,0.00,meteohub,2013-02-10 19:07:00,
2013-02-10 14:12:00,46.9,20.7,30.32,East,84,1.0,5.0,35,0.00,,,0.00,meteohub,2013-02-10 19:12:00,
2013-02-10 14:17:00,46.9,19.4,30.31,North,0,3.0,5.0,33,0.00,,,0.00,meteohub,2013-02-10 19:17:00,
2013-02-10 14:22:00,46.6,19.8,30.30,East,94,2.0,5.0,34,0.00,,,0.00,meteohub,2013-02-10 19:22:00,
2013-02-10 14:27:00,46.6,20.3,30.30,ESE,107,3.0,5.0,35,0.00,,,0.00,meteohub,2013-02-10 19:27:00,
2013-02-10 14:32:00,46.4,19.6,30.29,North,351,1.0,7.0,34,0.00,,,0.00,meteohub,2013-02-10 19:32:00,
2013-02-10 14:37:00,45.9,21.0,30.29,SE,146,4.0,7.0,37,0.00,,,0.00,meteohub,2013-02-10 19:37:00,
2013-02-10 14:42:00,45.5,19.4,30.29,SSE,163,2.0,5.0,35,0.00,,,0.00,meteohub,2013-02-10 19:42:00,
2013-02-10 14:48:00,45.0,19.6,30.29,NW,321,3.0,5.0,36,0.00,,,0.00,meteohub,2013-02-10 19:48:00,
2013-02-10 14:54:00,44.2,19.0,30.29,NNW,348,3.0,5.0,36,0.00,,,0.00,meteohub,2013-02-10 19:54:00,
2013-02-10 15:00:00,43.9,19.2,30.29,North,5,3.0,7.0,37,0.00,,,0.00,meteohub,2013-02-10 20:00:00,
2013-02-10 15:06:00,44.1,20.1,30.28,WNW,284,1.0,7.0,38,0.00,,,0.00,meteohub,2013-02-10 20:06:00,
2013-02-10 15:12:00,44.2,19.6,30.29,NW,304,2.0,4.0,37,0.00,,,0.00,meteohub,2013-02-10 20:12:00,
2013-02-10 15:17:00,44.2,19.0,30.29,NNW,339,1.0,6.0,36,0.00,,,0.00,meteohub,2013-02-10 20:17:00,
2013-02-10 15:22:00,44.1,18.9,30.28,NW,316,2.0,6.0,36,0.00,,,0.00,meteohub,2013-02-10 20:22:00,
2013-02-10 15:27:00,44.1,19.4,30.28,WNW,291,1.0,5.0,37,0.00,,,0.00,meteohub,2013-02-10 20:27:00,
2013-02-10 15:32:00,43.9,19.2,30.28,ESE,118,2.0,4.0,37,0.00,,,0.00,meteohub,2013-02-10 20:32:00,
2013-02-10 15:37:00,43.7,19.0,30.28,NNW,342,2.0,5.0,37,0.00,,,0.00,meteohub,2013-02-10 20:37:00,
2013-02-10 15:42:00,43.7,18.5,30.27,NW,325,0.0,6.0,36,0.00,,,0.00,meteohub,2013-02-10 20:42:00,
2013-02-10 15:47:00,43.9,19.2,30.27,SE,144,1.0,6.0,37,0.00,,,0.00,meteohub,2013-02-10 20:47:00,
2013-02-10 15:52:00,43.9,19.2,30.27,WNW,284,1.0,6.0,37,0.00,,,0.00,meteohub,2013-02-10 20:52:00,
2013-02-10 15:58:00,43.5,19.6,30.26,NE,49,1.0,7.0,38,0.00,,,0.00,meteohub,2013-02-10 20:58:00,
2013-02-10 16:04:00,43.3,19.4,30.26,SSW,203,1.0,7.0,38,0.00,,,0.00,meteohub,2013-02-10 21:04:00,
2013-02-10 16:10:00,43.0,19.0,30.26,SE,132,2.0,9.0,38,0.00,,,0.00,meteohub,2013-02-10 21:10:00,
2013-02-10 16:16:00,42.6,18.9,30.26,NNW,346,1.0,9.0,38,0.00,,,0.00,meteohub,2013-02-10 21:16:00,
2013-02-10 16:22:00,42.3,18.5,30.26,SSE,153,1.0,5.0,38,0.00,,,0.00,meteohub,2013-02-10 21:22:00,
2013-02-10 16:27:00,42.1,18.3,30.26,East,86,2.0,5.0,38,0.00,,,0.00,meteohub,2013-02-10 21:27:00,
2013-02-10 16:32:00,41.7,18.5,30.26,North,350,3.0,5.0,39,0.00,,,0.00,meteohub,2013-02-10 21:32:00,
2013-02-10 16:37:00,41.5,18.5,30.26,North,351,3.0,5.0,39,0.00,,,0.00,meteohub,2013-02-10 21:37:00,
2013-02-10 16:42:00,41.4,18.3,30.26,NNE,14,5.0,5.0,39,0.00,,,0.00,meteohub,2013-02-10 21:42:00,
2013-02-10 16:47:00,41.2,18.1,30.27,SSE,148,2.0,5.0,39,0.00,,,0.00,meteohub,2013-02-10 21:47:00,
2013-02-10 16:52:00,41.2,18.7,30.27,NW,308,1.0,7.0,40,0.00,,,0.00,meteohub,2013-02-10 21:52:00,
2013-02-10 16:58:00,40.8,18.3,30.27,ESE,123,2.0,7.0,40,0.00,,,0.00,meteohub,2013-02-10 21:58:00,
2013-02-10 17:04:00,40.6,18.1,30.27,SE,138,1.0,5.0,40,0.00,,,0.00,meteohub,2013-02-10 22:04:00,
2013-02-10 17:10:00,40.5,18.0,30.26,SSW,195,2.0,5.0,40,0.00,,,0.00,meteohub,2013-02-10 22:10:00,
2013-02-10 17:16:00,40.5,18.7,30.26,SE,144,1.0,8.0,41,0.00,,,0.00,meteohub,2013-02-10 22:16:00,
2013-02-10 17:22:00,40.3,18.5,30.26,NW,314,1.0,8.0,41,0.00,,,0.00,meteohub,2013-02-10 22:22:00,
2013-02-10 17:27:00,40.1,18.9,30.26,West,267,1.0,5.0,42,0.00,,,0.00,meteohub,2013-02-10 22:27:00,
2013-02-10 17:32:00,39.9,18.1,30.26,ESE,109,2.0,5.0,41,0.00,,,0.00,meteohub,2013-02-10 22:32:00,
2013-02-10 17:37:00,39.9,18.1,30.26,NNW,342,0.0,5.0,41,0.00,,,0.00,meteohub,2013-02-10 22:37:00,
2013-02-10 17:42:00,39.9,18.1,30.26,West,279,1.0,5.0,41,0.00,,,0.00,meteohub,2013-02-10 22:42:00,
2013-02-10 17:47:00,39.9,17.6,30.26,SSE,148,1.0,6.0,40,0.00,,,0.00,meteohub,2013-02-10 22:47:00,
2013-02-10 17:52:00,39.9,18.1,30.26,South,178,0.0,6.0,41,0.00,,,0.00,meteohub,2013-02-10 22:52:00,
2013-02-10 17:57:00,39.7,18.0,30.26,ESE,121,4.0,6.0,41,0.00,,,0.00,meteohub,2013-02-10 22:57:00,
2013-02-10 18:02:00,39.7,18.5,30.26,NW,320,1.0,7.0,42,0.00,,,0.00,meteohub,2013-02-10 23:02:00,
2013-02-10 18:07:00,39.7,19.0,30.25,SSE,150,0.0,7.0,43,0.00,,,0.00,meteohub,2013-02-10 23:07:00,
2013-02-10 18:12:00,39.6,18.3,30.25,ESE,104,1.0,7.0,42,0.00,,,0.00,meteohub,2013-02-10 23:12:00,
2013-02-10 18:17:00,39.6,18.3,30.25,SE,128,2.0,8.0,42,0.00,,,0.00,meteohub,2013-02-10 23:17:00,
2013-02-10 18:24:00,39.6,18.9,30.25,ESE,123,0.0,8.0,43,0.00,,,0.00,meteohub,2013-02-10 23:24:00,
2013-02-10 18:30:00,39.4,18.1,30.24,ESE,122,0.0,6.0,42,0.00,,,0.00,meteohub,2013-02-10 23:30:00,
2013-02-10 18:36:00,39.4,18.1,30.25,East,96,1.0,6.0,42,0.00,,,0.00,meteohub,2013-02-10 23:36:00,
2013-02-10 18:42:00,39.4,18.1,30.25,SSE,149,4.0,5.0,42,0.00,,,0.00,meteohub,2013-02-10 23:42:00,
2013-02-10 18:47:00,39.6,18.3,30.24,SSE,154,2.0,6.0,42,0.00,,,0.00,meteohub,2013-02-10 23:47:00,
2013-02-10 18:54:00,39.6,18.3,30.25,NNE,28,1.0,7.0,42,0.00,,,0.00,meteohub,2013-02-10 23:54:00,
2013-02-10 19:00:00,39.4,18.7,30.23,ENE,59,1.0,8.0,43,0.00,,,0.00,meteohub,2013-02-11 00:00:00,
2013-02-10 19:07:00,39.6,18.3,30.24,South,177,2.0,8.0,42,0.00,,,0.00,meteohub,2013-02-11 00:07:00,
2013-02-10 19:12:00,39.6,18.3,30.24,North,350,3.0,7.0,42,0.00,,,0.00,meteohub,2013-02-11 00:12:00,
2013-02-10 19:17:00,39.6,18.3,30.23,SSE,150,2.0,7.0,42,0.00,,,0.00,meteohub,2013-02-11 00:17:00,
2013-02-10 19:22:00,39.7,18.0,30.23,ESE,116,2.0,7.0,41,0.00,,,0.00,meteohub,2013-02-11 00:22:00,
2013-02-10 19:27:00,39.7,18.0,30.23,SE,145,1.0,9.0,41,0.00,,,0.00,meteohub,2013-02-11 00:27:00,
2013-02-10 19:34:00,39.9,18.1,30.23,NE,51,2.0,9.0,41,0.00,,,0.00,meteohub,2013-02-11 00:34:00,
2013-02-10 19:41:00,39.9,18.1,30.23,NW,317,2.0,9.0,41,0.00,,,0.00,meteohub,2013-02-11 00:41:00,
2013-02-10 19:47:00,39.7,18.5,30.24,SSE,156,1.0,7.0,42,0.00,,,0.00,meteohub,2013-02-11 00:47:00,
2013-02-10 19:52:00,39.9,18.1,30.24,South,185,1.0,7.0,41,0.00,,,0.00,meteohub,2013-02-11 00:52:00,
2013-02-10 19:57:00,39.9,18.7,30.24,SSE,167,2.0,5.0,42,0.00,,,0.00,meteohub,2013-02-11 00:57:00,
2013-02-10 20:02:00,39.7,18.0,30.24,SSE,148,1.0,5.0,41,0.00,,,0.00,meteohub,2013-02-11 01:02:00,
2013-02-10 20:07:00,39.7,18.0,30.24,NW,304,4.0,5.0,41,0.00,,,0.00,meteohub,2013-02-11 01:07:00,
2013-02-10 20:14:00,39.7,18.5,30.23,ESE,115,5.0,7.0,42,0.00,,,0.00,meteohub,2013-02-11 01:14:00,
2013-02-10 20:20:00,39.7,18.0,30.24,SSW,213,1.0,7.0,41,0.00,,,0.00,meteohub,2013-02-11 01:20:00,
2013-02-10 20:26:00,39.7,18.5,30.24,North,355,2.0,7.0,42,0.00,,,0.00,meteohub,2013-02-11 01:26:00,
2013-02-10 20:32:00,39.7,18.5,30.24,ENE,73,3.0,8.0,42,0.00,,,0.00,meteohub,2013-02-11 01:32:00,
2013-02-10 20:37:00,39.7,18.5,30.23,South,173,4.0,8.0,42,0.00,,,0.00,meteohub,2013-02-11 01:37:00,
2013-02-10 20:42:00,39.7,18.5,30.23,WSW,250,2.0,8.0,42,0.00,,,0.00,meteohub,2013-02-11 01:42:00,
2013-02-10 20:47:00,39.7,18.0,30.23,South,174,2.0,7.0,41,0.00,,,0.00,meteohub,2013-02-11 01:47:00,
2013-02-10 20:52:00,39.7,18.5,30.22,East,101,2.0,7.0,42,0.00,,,0.00,meteohub,2013-02-11 01:52:00,
2013-02-10 20:57:00,39.9,18.1,30.22,SSE,156,1.0,8.0,41,0.00,,,0.00,meteohub,2013-02-11 01:57:00,
2013-02-10 21:02:00,39.9,18.1,30.22,SE,125,0.0,8.0,41,0.00,,,0.00,meteohub,2013-02-11 02:02:00,
2013-02-10 21:07:00,39.9,18.7,30.22,North,9,3.0,8.0,42,0.00,,,0.00,meteohub,2013-02-11 02:07:00,
2013-02-10 21:12:00,39.9,17.6,30.21,SE,138,2.0,6.0,40,0.00,,,0.00,meteohub,2013-02-11 02:12:00,
2013-02-10 21:18:00,39.9,17.6,30.21,East,98,5.0,6.0,40,0.00,,,0.00,meteohub,2013-02-11 02:18:00,
2013-02-10 21:24:00,40.3,18.0,30.21,ESE,121,0.0,7.0,40,0.00,,,0.00,meteohub,2013-02-11 02:24:00,
2013-02-10 21:30:00,40.3,18.5,30.21,SE,132,2.0,10.0,41,0.00,,,0.00,meteohub,2013-02-11 02:30:00,
2013-02-10 21:36:00,40.3,18.0,30.21,SSE,161,4.0,10.0,40,0.00,,,0.00,meteohub,2013-02-11 02:36:00,
2013-02-10 21:42:00,40.3,18.0,30.21,ESE,119,2.0,7.0,40,0.00,,,0.00,meteohub,2013-02-11 02:42:00,
2013-02-10 21:47:00,40.3,18.0,30.21,SSE,148,1.0,7.0,40,0.00,,,0.00,meteohub,2013-02-11 02:47:00,
2013-02-10 21:52:00,40.3,18.5,30.21,NW,313,2.0,7.0,41,0.00,,,0.00,meteohub,2013-02-11 02:52:00,
2013-02-10 21:54:00,40.5,18.7,30.21,SSE,147,4.0,7.0,41,0.00,,,0.00,meteohub,2013-02-11 02:54:00,
2013-02-10 21:57:00,40.3,18.5,30.21,ESE,122,1.0,7.0,41,0.00,,,0.00,meteohub,2013-02-11 02:57:00,
2013-02-10 22:02:00,40.3,19.0,30.21,SSE,154,1.0,6.0,42,0.00,,,0.00,meteohub,2013-02-11 03:02:00,
2013-02-10 22:07:00,40.3,18.5,30.20,East,97,3.0,6.0,41,0.00,,,0.00,meteohub,2013-02-11 03:07:00,
2013-02-10 22:12:00,40.5,18.0,30.20,South,175,1.0,8.0,40,0.00,,,0.00,meteohub,2013-02-11 03:12:00,
2013-02-10 22:17:00,40.5,18.7,30.20,ESE,113,4.0,8.0,41,0.00,,,0.00,meteohub,2013-02-11 03:17:00,
2013-02-10 22:22:00,40.6,18.1,30.20,SE,130,5.0,8.0,40,0.00,,,0.00,meteohub,2013-02-11 03:22:00,
2013-02-10 22:27:00,40.6,18.1,30.19,SE,134,4.0,9.0,40,0.00,,,0.00,meteohub,2013-02-11 03:27:00,
2013-02-10 22:32:00,40.6,18.1,30.19,SE,128,3.0,9.0,40,0.00,,,0.00,meteohub,2013-02-11 03:32:00,
2013-02-10 22:37:00,40.6,18.9,30.18,SSE,156,3.0,7.0,41,0.00,,,0.00,meteohub,2013-02-11 03:37:00,
2013-02-10 22:42:00,40.8,18.3,30.18,ESE,123,2.0,7.0,40,0.00,,,0.00,meteohub,2013-02-11 03:42:00,
2013-02-10 22:47:00,40.8,18.3,30.18,SSE,167,3.0,9.0,40,0.00,,,0.00,meteohub,2013-02-11 03:47:00,
2013-02-10 22:52:00,40.8,18.3,30.18,ESE,122,1.0,9.0,40,0.00,,,0.00,meteohub,2013-02-11 03:52:00,
2013-02-10 22:57:00,41.0,19.0,30.18,ESE,108,1.0,9.0,41,0.00,,,0.00,meteohub,2013-02-11 03:57:00,
2013-02-10 23:02:00,40.8,18.9,30.17,ESE,122,1.0,9.0,41,0.00,,,0.00,meteohub,2013-02-11 04:02:00,
2013-02-10 23:07:00,40.8,18.3,30.17,SE,143,0.0,5.0,40,0.00,,,0.00,meteohub,2013-02-11 04:07:00,
2013-02-10 23:12:00,41.0,19.0,30.16,ESE,118,7.0,9.0,41,0.00,,,0.00,meteohub,2013-02-11 04:12:00,
2013-02-10 23:17:00,41.0,19.0,30.16,South,178,1.0,9.0,41,0.00,,,0.00,meteohub,2013-02-11 04:17:00,
2013-02-10 23:22:00,41.0,19.0,30.17,ESE,111,1.0,9.0,41,0.00,,,0.00,meteohub,2013-02-11 04:22:00,
2013-02-10 23:27:00,41.0,19.0,30.16,East,88,1.0,10.0,41,0.00,,,0.00,meteohub,2013-02-11 04:27:00,
2013-02-10 23:32:00,41.2,19.8,30.16,SE,138,1.0,10.0,42,0.00,,,0.00,meteohub,2013-02-11 04:32:00,
2013-02-10 23:37:00,41.2,19.8,30.16,SSW,209,2.0,10.0,42,0.00,,,0.00,meteohub,2013-02-11 04:37:00,
2013-02-10 23:42:00,41.4,19.4,30.16,East,101,2.0,9.0,41,0.00,,,0.00,meteohub,2013-02-11 04:42:00,
2013-02-10 23:47:00,41.4,19.9,30.17,SSE,163,2.0,9.0,42,0.00,,,0.00,meteohub,2013-02-11 04:47:00,
2013-02-10 23:52:00,41.5,20.1,30.17,ESE,120,1.0,8.0,42,0.00,,,0.00,meteohub,2013-02-11 04:52:00,
2013-02-10 23:57:00,41.7,20.8,30.16,SSW,208,6.0,6.0,43,0.00,,,0.00,meteohub,2013-02-11 04:57:00,